Location: Dreilärchen
(47.9312°N, 8.6113°E)
Time: 22:55:49
(UTC+00:00)

NOSS 0 Rocket - Pass Details

Date: 26 May 2022
Orbit: 936 x 954 km, 70.0° (Epoch: 02 July)

Event Time Altitude Azimuth Distance (km) Brightness Sun altitude
Exits shadow 00:29:25 32° 213° (SSW) 1,569 4.5 -19.4°
Maximum altitude 00:32:30 84° 299° (WNW) 965 3.9 -19.2°
Drops below altitude 10° 00:38:47 10° 28° (NNE) 2,690 7.5 -18.9°
Sets 00:41:19 0° 30° (NNE) 3,637 8.6 -18.7°
